Location: La Moutte
(44.4911°N, 4.6804°E)
Time: 06:22:50
(UTC+00:00)

Daily predictions for brighter satellites

Satellite Brightness Start Highest point End
(mag) Time Altitude Azimuth Time Altitude Azimuth Time Altitude Azimuth
STARLINK-55 4.2 17:38:16 10° SSW 17:41:05 27° SE 17:43:55 10° ENE
CZ-2D R/B 4.1 17:38:07 10° SE 17:41:29 29° ENE 17:44:51 10° N
CZ-4 R/B 1.7 17:37:56 10° SSE 17:42:00 49° ENE 17:46:04 10° N
STARLINK-28 4.1 17:39:52 10° SSW 17:42:47 30° SE 17:45:42 10° ENE
Envisat 3.5 17:38:15 10° S 17:43:17 67° WSW 17:48:22 10° NNW
Cosmos 1805 Rocket 4.0 17:40:14 10° SSE 17:44:19 39° E 17:48:24 10° NNE
COSMO-SKYMED 1 2.6 17:40:35 10° NNE 17:44:55 65° E 17:49:14 10° S
NOSS 3-1 (C) 4.3 17:42:50 10° SSE 17:47:05 24° ESE 17:51:44 10° ENE
Sich 1 3.8 17:44:09 10° SSE 17:47:55 30° E 17:51:40 10° NNE
Cosmos 1939 Rocket 3.4 17:45:38 10° SE 17:49:25 37° ENE 17:53:16 10° N
Cosmos 1802 Rocket 4.1 17:43:20 10° S 17:49:26 58° E 17:55:39 10° NNE
Cosmos 1812 4.2 17:47:54 10° NNE 17:50:35 18° ENE 17:53:15 10° ESE
Cosmos 2369 Rocket 3.6 17:48:17 10° SE 17:51:33 16° E 17:54:52 10° ENE
Cosmos 1500 Rocket 3.8 17:47:10 10° SSW 17:51:37 78° W 17:56:07 10° N
Cosmos 1707 Rocket 4.3 17:49:34 10° N 17:53:34 32° ENE 17:57:34 10° SE
Lacrosse 5 rocket 2.7 17:50:42 10° W 17:54:48 38° NNW 17:59:05 10° NE
Cosmos 1992 Rocket 4.0 17:50:08 10° S 17:55:19 67° ESE 18:00:32 10° NNE
STARLINK-42 3.9 17:54:43 10° SSW 17:57:43 33° SE 18:00:18 13° ENE
Meteor 1-27 Rocket 4.5 17:53:16 10° N 17:58:05 29° ENE 18:02:53 10° SE
Cosmos 2082 Rocket 2.5 17:52:56 10° NNW 17:58:35 75° WSW 18:04:13 10° SSE
STARLINK-80 4.1 17:57:52 10° WSW 18:01:36 51° NNW 18:05:21 10° NE
Cosmos 1743 Rocket 4.5 17:59:33 10° SSW 18:03:50 52° WNW 18:08:06 10° N
Cosmos 292 Rocket 3.7 18:00:38 10° S 18:05:25 70° ESE 18:10:13 10° NNE
Cosmos 1238 Rocket 4.0 18:02:18 10° S 18:08:17 72° E 18:14:55 10° NNE
STARLINK-50 4.5 18:06:53 10° SSW 18:10:28 31° SE 18:12:56 17° E
H-2A R/B 3.2 18:06:20 10° ESE 18:10:28 24° ENE 18:14:41 10° N
Cosmos 1354 Rocket 4.0 18:05:10 10° NNW 18:10:30 81° ENE 18:15:47 10° SSE
STARLINK-59 4.4 18:08:30 10° SSW 18:12:08 34° SE 18:14:37 17° E
STARLINK-56 4.4 18:10:10 10° SSW 18:13:47 33° SE 18:16:09 18° E
Cosmos 1833 Rocket 4.4 18:09:00 10° NW 18:14:07 36° WSW 18:19:12 10° S
STARLINK-73 4.3 18:11:46 10° SSW 18:15:26 34° SE 18:17:44 19° E
HJ-1C 4.1 18:12:33 10° SE 18:15:31 31° ENE 18:18:28 10° N
Cosmos 2016 Rocket 3.9 18:10:37 10° S 18:16:41 78° E 18:22:49 10° N
STARLINK-38 4.3 18:13:20 10° SSW 18:17:01 35° SE 18:19:17 19° E
STARLINK-65 4.2 18:14:52 10° SSW 18:18:35 36° SE 18:20:47 20° E
SL-27 R/B 3.6 18:16:55 10° N 18:19:34 21° ENE 18:19:54 21° ENE
STARLINK-1023 4.4 18:17:57 10° S 18:20:05 19° SE 18:20:24 18° SE
STARLINK-53 4.1 18:16:43 10° SSW 18:20:28 39° SE 18:22:39 21° E
STARLINK-64 3.5 18:18:04 10° SW 18:21:32 50° SE 18:23:31 23° ENE
STARLINK-1007 4.3 18:21:58 10° S 18:24:18 21° SE 18:24:34 21° SE
Ariane Rocket 3.3 18:22:02 10° SE 18:26:51 44° ENE 18:31:41 10° N
YAOGAN 1 2.9 18:23:27 10° S 18:27:45 68° WSW 18:32:05 10° NNW
CSL-04 Rocket 3.8 18:23:48 10° SSE 18:29:21 81° WSW 18:34:54 10° NNW
Cosmos 921 Rocket 3.5 18:26:27 10° S 18:30:38 40° ESE 18:34:53 10° NNE
STARLINK-1010 4.1 18:28:31 10° SSW 18:31:03 24° SE 18:31:07 24° SE
DMSP B5D1-3 4.4 18:26:29 10° NNE 18:31:38 77° ESE 18:36:47 10° S
STARLINK-61 3.4 18:27:48 10° SW 18:31:42 81° SSE 18:33:55 25° ENE
USA 234 4.2 18:27:26 16° ENE 18:31:47 33° NNE 18:37:28 10° NW
USA 229 DEB 3.7 18:27:54 10° SSW 18:34:14 57° ESE 18:40:52 10° NE
USA 229 3.7 18:28:01 10° SSW 18:34:20 57° ESE 18:40:55 10° NE
Cosmos 2233 Rocket 4.0 18:28:42 10° SSE 18:34:39 55° E 18:40:39 10° NNE
Cosmos 2278 Rocket 4.2 18:30:06 10° WSW 18:34:47 26° NW 18:39:29 10° N
ADEOS Rocket 3.5 18:27:45 10° NNE 18:35:30 75° ESE 18:43:14 10° S
STARLINK-1008 4.0 18:32:57 10° SSW 18:35:40 28° SE 18:35:42 28° SE
SJ-11-01 4.5 18:31:39 10° SE 18:36:08 48° ENE 18:40:38 10° N
ARGOS 3.8 18:32:57 17° ESE 18:36:22 33° ENE 18:41:10 10° N
STARLINK-1016 3.9 18:34:04 10° SSW 18:36:45 28° SE 18:36:45 28° SE
STARLINK-1025 3.9 18:34:32 10° SSW 18:37:17 29° SE 18:37:17 29° SE
STARLINK-1017 3.9 18:34:46 10° SSW 18:37:23 28° SE 18:37:23 28° SE
STARLINK-1029 4.5 18:35:51 10° S 18:37:56 21° SSE 18:37:56 21° SSE
Cosmos 1633 Rocket 2.9 18:34:48 10° S 18:39:04 64° E 18:43:23 10° NNE
STARLINK-1048 3.9 18:37:15 10° SSW 18:39:51 30° SE 18:39:51 30° SE
STARLINK-1028 3.9 18:37:36 10° SSW 18:40:10 30° SE 18:40:10 30° SE
Abrixas rocket 3.2 18:37:46 10° W 18:40:32 35° SSW 18:41:54 22° SSE
STARLINK-1021 3.8 18:37:54 10° SSW 18:40:28 30° SE 18:40:28 30° SE
STARLINK-1049 3.8 18:38:05 10° SSW 18:40:41 30° SE 18:40:41 30° SE
Cosmos 1666 Rocket 3.5 18:36:38 10° S 18:41:06 83° E 18:45:37 10° N
STARLINK-48 4.4 18:37:39 10° W 18:41:23 43° NNW 18:43:32 22° NE
NOSS 3-1 (A) 3.7 18:36:37 10° S 18:41:34 37° ESE 18:44:29 23° ENE
STARLINK-1051 3.8 18:38:59 10° SSW 18:41:33 31° SE 18:41:33 31° SE
STARLINK-1019 3.8 18:39:25 10° SSW 18:41:57 31° SSE 18:41:57 31° SSE
Lacrosse 4 Rocket 2.0 18:38:59 10° SW 18:43:05 56° WNW 18:47:21 10° NNE
STARLINK-1012 3.8 18:40:21 10° SSW 18:42:53 31° SSE 18:42:53 31° SSE
STARLINK 1040 3.5 18:40:53 10° SSW 18:43:08 34° SSE 18:43:08 34° SSE
STARLINK-1026 3.8 18:41:36 10° SSW 18:44:07 32° SSE 18:44:07 32° SSE
SJ-6B 4.2 18:45:54 21° NE 18:45:54 21° NE 18:47:42 10° N
Meteor 1-10 Rocket 4.5 18:40:01 10° NNW 18:45:39 71° W 18:51:11 10° S
STARLINK-1013 3.8 18:43:09 10° SSW 18:45:39 33° SSE 18:45:39 33° SSE
STARLINK-1009 3.8 18:44:06 10° SSW 18:46:34 33° SSE 18:46:34 33° SSE
STARLINK-1015 3.7 18:44:23 10° SSW 18:46:55 34° SSE 18:46:55 34° SSE
SPOT 3 Rocket 4.2 18:50:00 31° ENE 18:50:33 31° ENE 18:55:06 10° N
CRYOSAT 2 4.3 18:45:50 10° S 18:50:43 82° E 18:55:39 10° N
Cosmos 1862 3.9 18:47:05 10° SSW 18:51:02 58° W 18:54:59 10° N
SL-4 R/B 2.4 18:46:52 10° WNW 18:51:38 75° SSW 18:53:46 31° SE
STARLINK-24 3.4 18:48:04 10° SW 18:52:03 70° SE 18:53:07 45° ENE
Cosmos 44 4.0 18:48:15 10° NNW 18:52:05 29° NE 18:52:10 29° NE
Resurs 01 Rocket 4.0 18:56:16 10° NNE 18:56:16 10° NNE 18:56:20 10° NNE
Cosmos 2242 Rocket 4.0 18:54:23 10° N 18:58:26 41° ENE 18:58:26 41° ENE
STARLINK-81 3.4 18:55:47 10° SW 18:59:47 73° SE 19:00:27 58° E
STARLINK-26 4.4 18:57:35 10° W 19:00:47 34° NNW 19:01:37 29° N
STARLINK-54 3.4 18:57:37 10° SW 19:01:39 82° SE 19:02:20 59° ENE
STARLINK-77 3.4 18:59:04 10° SW 19:03:05 78° SE 19:03:38 63° E
STARLINK-25 3.4 19:00:45 10° SW 19:04:46 80° SE 19:05:15 66° ENE
STARLINK-71 3.4 19:02:30 10° SW 19:06:31 89° SE 19:07:03 67° ENE
STARLINK-79 3.4 19:04:03 10° SW 19:08:04 84° SE 19:08:26 72° ENE
Cosmos 1943 Rocket 2.0 19:02:35 10° SSW 19:08:11 84° ESE 19:13:26 12° NNE
MOS 1 4.2 19:03:23 10° SSE 19:09:02 76° ENE 19:14:43 10° NNW
STARLINK-78 3.4 19:05:41 10° SW 19:09:42 87° SE 19:10:01 75° ENE
STARLINK-75 3.6 19:07:31 10° WSW 19:10:53 55° NNW 19:10:56 55° NNW
STARLINK-57 3.4 19:07:16 10° SW 19:11:18 88° NW 19:11:36 76° NE
STARLINK-49 3.4 19:08:58 10° SW 19:13:00 89° NNW 19:13:10 81° NE
STARLINK-33 3.9 19:10:45 10° WSW 19:13:44 46° NW 19:13:44 46° NW
STARLINK-27 3.4 19:10:40 10° WSW 19:14:42 87° NNW 19:14:49 84° NNE
STARLINK-66 4.0 19:12:26 10° WSW 19:15:21 44° NW 19:15:21 44° NW
STARLINK-22 3.6 19:12:14 10° WSW 19:15:21 59° WNW 19:15:21 59° WNW
STARLINK-74 3.4 19:12:14 10° WSW 19:16:16 85° NNW 19:16:18 84° N
STARLINK-41 3.7 19:13:32 10° WSW 19:16:38 55° NW 19:16:38 55° NW
STARLINK-55 4.1 19:14:12 10° W 19:17:01 41° NW 19:17:01 41° NW
STARLINK-39 3.5 19:13:54 10° WSW 19:17:55 83° NNW 19:17:55 83° NNW
STARLINK-28 4.2 19:15:58 10° W 19:18:43 38° NW 19:18:43 38° NW
STARLINK-31 3.5 19:15:37 10° WSW 19:19:33 80° NW 19:19:33 80° NW
Cosmos 1470 Rocket 3.5 19:16:37 10° S 19:20:57 82° W 19:25:20 10° N
STARLINK-69 3.6 19:17:23 10° WSW 19:21:20 73° NW 19:21:20 73° NW
STARLINK-21 3.6 19:18:58 10° WSW 19:22:47 73° WNW 19:22:47 73° WNW
STARLINK-45 3.8 19:20:47 10° WSW 19:24:37 67° NW 19:24:37 67° NW
STARLINK-70 3.8 19:22:24 10° WSW 19:26:08 66° WNW 19:26:08 66° WNW
Cosmos 1812 4.4 19:22:58 10° NNW 19:26:30 34° W 19:30:00 10° SSW
STARLINK-58 4.2 19:24:13 10° WSW 19:27:02 46° WNW 19:27:02 46° WNW
STARLINK-76 3.9 19:23:57 10° WSW 19:27:34 64° WNW 19:27:34 64° WNW
Cosmos 1862 Rocket 4.1 19:23:52 10° NNW 19:28:06 55° W 19:31:34 15° S
STARLINK-62 4.4 19:25:56 10° WSW 19:28:41 43° WNW 19:28:41 43° WNW
STARLINK-23 3.9 19:25:33 10° WSW 19:29:06 61° WNW 19:29:06 61° WNW
Cosmos 1777 Rocket 4.4 19:24:22 10° NNW 19:29:36 62° WSW 19:32:51 23° S
STARLINK-34 4.4 19:27:10 10° WSW 19:29:50 41° WNW 19:29:50 41° WNW
STARLINK-32 4.0 19:27:14 10° WSW 19:30:43 59° WNW 19:30:43 59° WNW
STARLINK-40 4.1 19:28:47 10° WSW 19:32:12 56° WNW 19:32:12 56° WNW
Cosmos 1833 4.3 19:27:07 10° NNW 19:32:37 58° NE 19:32:37 58° NE
STARLINK-44 4.2 19:30:29 10° WSW 19:33:50 54° WNW 19:33:50 54° WNW
Cosmos 2285 Rocket 3.9 19:28:06 10° NNW 19:34:30 83° ENE 19:36:24 49° SSE
Cosmos 1464 Rocket 3.9 19:28:26 10° S 19:34:41 64° E 19:41:00 10° NNE
Cosmos 2369 Rocket 2.2 19:29:12 10° SSW 19:34:50 78° WNW 19:38:20 24° NNE
Lacrosse 5 rocket 3.7 19:31:59 10° NW 19:35:07 18° N 19:35:54 17° N
STARLINK-37 4.3 19:32:14 10° WSW 19:35:33 51° WNW 19:35:33 51° WNW
NOSS 3-1 (C) 3.7 19:31:46 10° SW 19:37:14 61° NW 19:40:53 25° NNE
STARLINK-36 4.4 19:33:47 10° WSW 19:36:59 49° WNW 19:36:59 49° WNW
USA 267 3.1 19:38:57 60° E 19:39:49 66° SE 19:46:18 10° SW
CZ-2C R/B 3.5 19:44:51 27° S 19:48:06 68° W 19:53:54 10° NNW
Cosmos 2263 4.2 19:42:32 10° SSW 19:48:20 84° WNW 19:49:08 67° N
H-2A R/B 2.8 19:45:44 18° S 19:49:30 53° W 19:54:49 10° NNW
SJ 16-02 4.0 20:04:56 10° N 20:05:16 12° N 20:05:16 12° N
USA 234 3.5 20:14:46 59° N 20:14:46 59° N 20:20:32 10° NW
ARGOS 4.5 20:14:27 27° SW 20:16:32 36° W 20:21:33 10° NNW
NOSS 3-1 (A) 4.3 20:26:57 10° WSW 20:32:02 43° NW 20:32:02 43° NW
CENTAUR R/B 4.4 20:55:15 10° NNW 20:59:54 28° N 20:59:54 28° N
